FW1310 Weather Reports


time (UTC)temp
C
wind
direction
speed
KPH
gust
KPH
rain 1hr
cm
rain 24hr
cm
rain mn
cm
humidity
%
barometer
mb
20260505035004 22 285 3.2 9.7 0.00 0.00 0.00 81 994.5
20260505033504 22 300 4.8 14.5 0.00 0.00 0.00 80 994.4
20260505031004 22 337 4.8 9.7 0.00 0.00 0.00 78 994.4
20260505030504 22 298 4.8 16.1 0.00 0.00 0.00 77 994.6
20260505030004 23 237 4.8 14.5 0.00 0.00 0.00 77 994.5
20260505025504 23 274 4.8 14.5 0.00 0.00 0.00 76 994.5
20260505025005 23 270 6.4 11.3 0.00 0.00 0.00 75 994.7
20260505024504 23 343 3.2 9.7 0.00 0.00 0.00 74 994.5
20260505024005 23 217 3.2 8.0 0.00 0.00 0.00 74 994.6
20260505023504 23 271 3.2 8.0 0.00 0.00 0.00 73 994.6
20260505023004 23 266 1.6 4.8 0.00 0.00 0.00 73 994.6
20260505022504 23 283 1.6 9.7 0.00 0.00 0.00 72 994.6
20260505022005 23 280 1.6 4.8 0.00 0.00 0.00 72 994.4
20260505021504 23 292 3.2 8.0 0.00 0.00 0.00 72 994.4
20260505021005 23 290 4.8 11.3 0.00 0.00 0.00 71 994.3
20260505020504 23 103 4.8 11.3 0.00 0.00 0.00 71 994.2
20260505020004 23 198 8.0 16.1 0.00 0.00 0.00 71 994.3
20260505015504 23 285 3.2 14.5 0.00 0.00 0.00 70 994.2
20260505015004 23 0 3.2 11.3 0.00 0.00 0.00 70 994.3
20260505014504 23 302 3.2 8.0 0.00 0.00 0.00 69 994.4
20260505014005 23 274 3.2 8.0 0.00 0.00 0.00 69 994.4
20260505013504 24 289 3.2 11.3 0.00 0.00 0.00 67 994.4
20260505013004 24 345 4.8 12.9 0.00 0.00 0.00 67 994.5
20260505012504 24 260 4.8 14.5 0.00 0.00 0.00 67 994.3
20260505011504 24 292 4.8 11.3 0.00 0.00 0.00 66 994.3
20260505011004 24 309 8.0 16.1 0.00 0.00 0.00 65 994.3
20260505010505 25 224 4.8 19.3 0.00 0.00 0.00 65 994.3
20260505010005 25 19 9.7 14.5 0.00 0.00 0.00 64 994.4
20260505005504 25 222 4.8 14.5 0.00 0.00 0.00 64 994.3
20260505005005 25 268 3.2 9.7 0.00 0.00 0.00 64 994.3
20260505004504 25 301 4.8 14.5 0.00 0.00 0.00 63 994.3
20260505004004 25 246 6.4 16.1 0.00 0.00 0.00 63 994.3
20260505003505 25 299 4.8 14.5 0.00 0.00 0.00 63 994.3
20260505003004 25 297 8.0 16.1 0.00 0.00 0.00 62 994.4
20260505002504 26 311 4.8 12.9 0.00 0.00 0.00 62 994.3
20260505002004 26 336 4.8 16.1 0.00 0.00 0.00 61 994.2
20260505001504 26 340 3.2 16.1 0.00 0.00 0.00 61 994.2
20260505001004 26 294 6.4 16.1 0.00 0.00 0.00 60 994.2
20260505000505 26 353 11.3 27.4 0.00 0.00 0.00 60 994.0
20260505000004 26 334 8.0 24.1 0.00 0.00 0.00 60 994.1
20260504235505 26 346 8.0 22.5 0.00 0.00 0.00 60 994.3
20260504234504 27 331 6.4 12.9 0.00 0.00 0.00 59 994.5
20260504234004 27 331 4.8 12.9 0.00 0.00 0.00 58 994.3
20260504233504 27 165 8.0 20.9 0.00 0.00 0.00 59 994.3
20260504233005 27 276 8.0 12.9 0.00 0.00 0.00 58 994.4
20260504232504 27 296 4.8 12.9 0.00 0.00 0.00 58 994.5
20260504232004 27 303 8.0 12.9 0.00 0.00 0.00 58 994.6
20260504231505 27 329 4.8 14.5 0.00 0.00 0.00 58 994.5
20260504231004 27 340 8.0 14.5 0.00 0.00 0.00 57 994.5
20260504230504 27 278 8.0 16.1 0.00 0.00 0.00 57 994.7
20260504230005 27 118 4.8 22.5 0.00 0.00 0.00 56 994.7
20260504225504 28 308 8.0 22.5 0.00 0.00 0.00 55 994.7
20260504225005 28 259 4.8 16.1 0.00 0.00 0.00 55 994.7
20260504224005 28 300 4.8 14.5 0.00 0.00 0.00 56 994.9
20260504223505 28 228 8.0 16.1 0.00 0.00 0.00 55 994.9
20260504223004 28 282 4.8 12.9 0.00 0.00 0.00 55 994.9
20260504222505 28 212 6.4 14.5 0.00 0.00 0.00 55 994.8
20260504222005 28 304 8.0 16.1 0.00 0.00 0.00 56 995.0
20260504221504 28 303 4.8 16.1 0.00 0.00 0.00 55 995.2
20260504221005 28 347 4.8 22.5 0.00 0.00 0.00 55 995.1
20260504220504 28 302 8.0 19.3 0.00 0.00 0.00 56 995.0
20260504215504 28 279 6.4 19.3 0.00 0.00 0.00 55 995.3
20260504215004 28 275 8.0 19.3 0.00 0.00 0.00 55 995.2
20260504214505 28 321 8.0 12.9 0.00 0.00 0.00 55 995.1
20260504214004 28 321 4.8 14.5 0.00 0.00 0.00 55 995.2
20260504213004 28 16 4.8 20.9 0.00 0.00 0.00 55 995.2
20260504212504 28 10 4.8 14.5 0.00 0.00 0.00 55 995.4
20260504212004 28 288 8.0 16.1 0.00 0.00 0.00 54 995.6
20260504211504 28 264 3.2 12.9 0.00 0.00 0.00 55 995.8
20260504211004 28 346 4.8 14.5 0.00 0.00 0.00 55 995.9
20260504210504 28 315 8.0 12.9 0.00 0.00 0.00 56 996.0
20260504205504 27 346 4.8 16.1 0.00 0.00 0.00 56 996.2
20260504205004 27 87 8.0 22.5 0.00 0.00 0.00 57 996.3
20260504204504 27 288 4.8 16.1 0.00 0.00 0.00 57 996.3
20260504203504 27 261 9.7 14.5 0.00 0.00 0.00 56 996.3
20260504203004 27 347 3.2 14.5 0.00 0.00 0.00 58 996.4
20260504202504 27 267 8.0 14.5 0.00 0.00 0.00 56 996.6
20260504202004 27 267 8.0 14.5 0.00 0.00 0.00 57 996.6
20260504201505 27 249 9.7 24.1 0.00 0.00 0.00 56 996.7
20260504201004 27 300 6.4 24.1 0.00 0.00 0.00 57 996.8
20260504200004 27 290 4.8 14.5 0.00 0.00 0.00 58 997.0
20260504195504 27 287 8.0 14.5 0.00 0.00 0.00 57 997.0
20260504195004 27 2 8.0 20.9 0.00 0.00 0.00 56 997.3
20260504194504 27 269 8.0 19.3 0.00 0.00 0.00 56 997.3
20260504194004 27 306 4.8 16.1 0.00 0.00 0.00 58 997.6
20260504193504 26 295 4.8 16.1 0.00 0.00 0.00 58 997.6
20260504192504 26 335 4.8 12.9 0.00 0.00 0.00 59 997.7
20260504191504 26 326 9.7 20.9 0.00 0.00 0.00 60 997.8
20260504191004 26 275 8.0 19.3 0.00 0.00 0.00 59 997.9
20260504190004 26 299 4.8 14.5 0.00 0.00 0.00 60 998.1
20260504185504 25 286 4.8 20.9 0.00 0.00 0.00 61 998.2
20260504185005 25 309 4.8 16.1 0.00 0.00 0.00 61 998.2
20260504184505 26 324 4.8 12.9 0.00 0.00 0.00 60 998.0
20260504184004 26 322 8.0 11.3 0.00 0.00 0.00 60 998.1
20260504183504 26 304 4.8 14.5 0.00 0.00 0.00 61 998.1
20260504183004 25 283 4.8 16.1 0.00 0.00 0.00 61 998.3
20260504182504 25 272 8.0 27.4 0.00 0.00 0.00 62 998.6
20260504181505 25 306 4.8 14.5 0.00 0.00 0.00 62 998.6
20260504181005 25 313 8.0 16.1 0.00 0.00 0.00 63 998.7
20260504180504 25 247 4.8 12.9 0.00 0.00 0.00 63 998.7
20260504180004 24 284 8.0 20.9 0.00 0.00 0.00 64 998.8
20260504175504 24 253 3.2 14.5 0.00 0.00 0.00 64 999.0
20260504174004 24 312 3.2 20.9 0.00 0.00 0.00 63 999.0
20260504173504 23 272 3.2 9.7 0.00 0.00 0.00 64 999.1
20260504173005 23 301 3.2 19.3 0.00 0.00 0.00 66 999.3
20260504172504 23 344 8.0 19.3 0.00 0.00 0.00 65 999.4
20260504172004 23 4 4.8 14.5 0.00 0.00 0.00 67 999.5
20260504171505 22 164 6.4 22.5 0.00 0.00 0.00 68 999.5
20260504171005 22 65 4.8 22.5 0.00 0.00 0.00 68 999.8
20260504170504 22 324 9.7 20.9 0.00 0.00 0.00 68 999.8
20260504151004 21 328 9.7 20.9 0.00 0.00 0.00 69 1000.2
20260504150504 21 255 4.8 16.1 0.00 0.00 0.00 69 1000.2
20260504141004 19 289 4.8 16.1 0.00 0.00 0.00 74 1000.2
20260504140504 19 292 4.8 22.5 0.00 0.00 0.00 74 1000.2
20260504130504 16 266 3.2 4.8 0.00 0.00 0.00 81 1000.3
20260504081504 16 255 8.0 12.9 0.00 0.00 0.00 76 1000.2
20260504081004 16 228 3.2 4.8 0.00 0.00 0.00 76 1000.3
20260504080504 16 250 3.2 16.1 0.00 0.00 0.00 75 1000.6
20260504050005 18 239 3.2 8.0 0.00 0.00 0.00 62 1002.5
20260504045504 18 262 3.2 9.7 0.00 0.00 0.00 61 1002.6
20260504045004 18 253 1.6 4.8 0.00 0.00 0.00 60 1002.5
20260504044504 17 253 3.2 4.8 0.00 0.00 0.00 60 1002.6
20260504043004 18 276 0.0 3.2 0.00 0.00 0.00 58 1002.8
20260504042504 18 268 0.0 4.8 0.00 0.00 0.00 58 1002.7
20260504040504 18 248 1.6 3.2 0.00 0.00 0.00 55 1002.8
20260504040004 18 254 0.0 1.6 0.00 0.00 0.00 56 1002.7